Date String (YYYY-MM-DD hh:mm:ss) UTC,Instrument flags,absolute air pressure of the measurement (hPa),sample flow rate (lpm),inlet stack bypass flow (lpm),air temperature of the measurement (°C),ambient temperature measured by the external sensor (°C),aerosol sample conditioner tube jacket temperature (°C),OPC LED temperature (°C),internal box temperature (°C),relative humidity of the measurement (%),span deviation,mass concentration of particles derived from Lorenz-Mie calculation of OPC scattering (μg/m³),mass concentration of particles derived from Lorenz-Mie calculation of OPC scattering (μg/m³),mass concentration of particles derived from Lorenz-Mie calculation of OPC scattering (μg/m³)
DateTimeUTC,F1_M11,P_M11,Q1_M11,Q2_M11,T1_M11,T2_M11,T3_M11,T4_M11,T5_M11,U1_M11,ZSPAN_M11,X2_M11,X0_M11,X1_M11
2023-06-11 02:00:00,SystemResetWarning,0829.6,5.00,000.00,029.7,027.8,000.0,038.2,031.3,26.5,0000.0,0003.88,0008.77,0003.14
2023-06-11 02:01:00,SystemResetWarning,0829.6,4.99,000.00,029.7,025.6,000.0,038.1,031.3,26.5,0000.0,0003.89,0008.85,0003.12
2023-06-11 02:02:00,SystemResetWarning,0829.6,5.01,000.00,029.7,024.8,000.0,038.0,031.2,26.5,0000.0,0003.89,0009.22,0003.11
2023-06-11 02:03:00,SystemResetWarning,0829.6,5.02,000.00,029.6,025.0,000.0,038.0,030.9,26.7,0000.0,0003.89,0009.24,0003.09
2023-06-11 02:04:00,SystemResetWarning,0829.6,4.99,000.00,029.5,025.4,000.0,038.0,030.8,27.0,0000.0,0003.92,0009.39,0003.08
2023-06-11 02:05:00,SystemResetWarning,0829.6,5.00,000.00,029.4,025.8,000.0,038.0,030.8,26.9,0000.0,0003.91,0009.80,0003.07
2023-06-11 02:06:00,SystemResetWarning,0829.6,5.00,000.00,029.4,026.2,000.0,038.0,030.8,26.9,0000.0,0003.89,0009.92,0003.05
2023-06-11 02:07:00,SystemResetWarning,0829.6,5.01,000.00,029.4,026.6,000.0,038.0,030.9,26.8,0000.0,0003.89,0009.69,0003.05
2023-06-11 02:08:00,SystemResetWarning,0829.7,5.00,000.00,029.4,026.9,000.0,038.0,030.9,26.8,0000.0,0003.89,0009.32,0003.04
2023-06-11 02:09:00,SystemResetWarning,0829.7,5.00,000.00,029.4,027.2,000.0,038.0,030.9,26.8,0000.0,0003.91,0009.14,0003.06
2023-06-11 02:10:00,SystemResetWarning,0829.7,5.00,000.00,029.4,027.4,000.0,038.0,031.0,26.4,0000.0,0003.90,0009.71,0003.04
2023-06-11 02:11:00,SystemResetWarning,0829.7,5.00,000.00,029.4,027.6,000.0,038.0,030.9,26.1,0000.0,0003.95,0010.97,0003.04
2023-06-11 02:12:00,SystemResetWarning,0829.8,5.01,000.00,029.4,027.7,000.0,038.0,031.0,25.9,0000.0,0003.95,0010.94,0003.03
2023-06-11 02:13:00,SystemResetWarning,0829.8,5.00,000.00,029.5,027.8,000.0,038.0,031.1,26.1,0000.0,0003.93,0010.53,0003.02
2023-06-11 02:14:00,SystemResetWarning,0829.9,4.99,000.00,029.5,027.9,000.0,038.0,031.1,26.2,0000.0,0003.93,0010.56,0003.00
2023-06-11 02:15:00,SystemResetWarning,0829.9,4.98,000.00,029.5,028.0,000.0,038.0,031.1,26.3,0000.0,0003.90,0010.41,0002.97
2023-06-11 02:16:00,SystemResetWarning,0830.0,4.99,000.00,029.5,028.1,000.0,038.0,031.1,26.4,0000.0,0003.93,0010.34,0002.98
2023-06-11 02:17:00,SystemResetWarning,0830.0,5.01,000.00,029.6,028.1,000.0,038.0,031.2,26.3,0000.0,0003.99,0010.23,0003.01
2023-06-11 02:18:00,SystemResetWarning,0830.0,5.01,000.00,029.6,028.2,000.0,038.1,031.2,26.2,0000.0,0003.98,0010.16,0003.02
2023-06-11 02:19:00,SystemResetWarning,0830.0,4.99,000.00,029.6,028.3,000.0,038.1,031.2,26.4,0000.0,0003.95,0010.66,0003.02
2023-06-11 02:20:00,SystemResetWarning,0830.1,4.99,000.00,029.7,028.3,000.0,038.1,031.2,26.0,0000.0,0003.92,0010.98,0003.00
2023-06-11 02:21:00,SystemResetWarning,0830.1,5.01,000.00,029.7,028.4,000.0,038.1,031.3,26.0,0000.0,0003.97,0010.53,0003.01
2023-06-11 02:22:00,SystemResetWarning,0830.1,5.01,000.00,029.7,028.4,000.0,038.1,031.3,25.7,0000.0,0003.96,0009.73,0003.01
2023-06-11 02:23:00,SystemResetWarning,0830.1,4.99,000.00,029.7,028.5,000.0,038.2,031.3,25.4,0000.0,0003.95,0009.69,0003.01
2023-06-11 02:24:00,SystemResetWarning,0830.2,4.99,000.00,029.8,028.5,000.0,038.2,031.3,25.5,0000.0,0003.99,0009.78,0003.01
2023-06-11 02:25:00,SystemResetWarning,0830.3,5.00,000.00,029.8,028.5,000.0,038.2,031.4,25.5,0000.0,0003.99,0009.76,0003.03
2023-06-11 02:26:00,SystemResetWarning,0830.2,5.00,000.00,029.8,028.2,000.0,038.2,031.4,25.5,0000.0,0004.01,0009.78,0003.07
2023-06-11 02:27:00,SystemResetWarning,0830.2,4.99,000.00,029.8,026.1,000.0,038.2,031.3,25.6,0000.0,0004.03,0009.61,0003.09
2023-06-11 02:28:00,SystemResetWarning,0830.2,5.00,000.00,029.8,025.0,000.0,038.1,031.2,25.8,0000.0,0004.02,0009.59,0003.07
2023-06-11 02:29:00,SystemResetWarning,0830.2,5.01,000.00,029.7,025.0,000.0,038.1,030.9,26.0,0000.0,0004.04,0009.87,0003.08
2023-06-11 02:30:00,SystemResetWarning,0830.3,5.01,000.00,029.6,025.4,000.0,038.1,030.8,26.1,0000.0,0004.05,0009.93,0003.08
2023-06-11 02:31:00,SystemResetWarning,0830.2,5.00,000.00,029.5,025.8,000.0,038.1,030.8,26.1,0000.0,0004.05,0009.21,0003.10
2023-06-11 02:32:00,SystemResetWarning,0830.2,5.00,000.00,029.5,026.2,000.0,038.1,030.8,26.3,0000.0,0004.02,0009.13,0003.09
2023-06-11 02:33:00,SystemResetWarning,0830.2,5.00,000.00,029.5,026.6,000.0,038.1,030.9,26.2,0000.0,0004.01,0009.01,0003.08
2023-06-11 02:34:00,SystemResetWarning,0830.1,5.01,000.00,029.5,026.9,000.0,038.1,030.9,26.1,0000.0,0004.03,0009.38,0003.09
2023-06-11 02:35:00,SystemResetWarning,0830.1,5.00,000.00,029.5,027.2,000.0,038.1,031.0,26.5,0000.0,0004.01,0009.34,0003.09
2023-06-11 02:36:00,SystemResetWarning,0830.1,5.00,000.00,029.5,027.4,000.0,038.1,031.0,26.8,0000.0,0003.99,0009.49,0003.11
2023-06-11 02:37:00,SystemResetWarning,0830.1,4.99,000.00,029.5,027.6,000.0,038.1,031.0,27.0,0000.0,0004.05,0010.03,0003.12
2023-06-11 02:38:00,SystemResetWarning,0830.1,5.00,000.00,029.5,027.8,000.0,038.1,031.1,26.9,0000.0,0004.00,0009.94,0003.09
2023-06-11 02:39:00,SystemResetWarning,0830.1,5.01,000.00,029.5,027.9,000.0,038.1,031.1,26.9,0000.0,0003.98,0010.46,0003.10
2023-06-11 02:40:00,SystemResetWarning,0830.2,5.01,000.00,029.6,028.0,000.0,038.1,031.1,26.9,0000.0,0003.96,0011.09,0003.09
2023-06-11 02:41:00,SystemResetWarning,0830.2,5.00,000.00,029.6,028.1,000.0,038.1,031.1,26.8,0000.0,0004.01,0011.00,0003.09
2023-06-11 02:42:00,SystemResetWarning,0830.2,4.99,000.00,029.6,028.2,000.0,038.1,031.2,27.0,0000.0,0004.02,0011.37,0003.09
2023-06-11 02:43:00,SystemResetWarning,0830.3,4.99,000.00,029.6,028.2,000.0,038.1,031.2,27.0,0000.0,0004.03,0011.47,0003.10
2023-06-11 02:44:00,SystemResetWarning,0830.3,5.00,000.00,029.7,028.3,000.0,038.1,031.3,27.0,0000.0,0004.03,0011.36,0003.12
2023-06-11 02:45:00,SystemResetWarning,0830.3,5.00,000.00,029.7,028.4,000.0,038.2,031.3,26.9,0000.0,0004.00,0010.83,0003.12
2023-06-11 02:46:00,SystemResetWarning,0830.3,5.00,000.00,029.7,028.4,000.0,038.2,031.3,27.1,0000.0,0004.04,0011.20,0003.12
2023-06-11 02:47:00,SystemResetWarning,0830.3,5.00,000.00,029.8,028.5,000.0,038.2,031.3,26.9,0000.0,0004.06,0011.42,0003.13
2023-06-11 02:48:00,SystemResetWarning,0830.3,5.00,000.00,029.8,028.5,000.0,038.2,031.4,26.8,0000.0,0004.04,0011.82,0003.13
2023-06-11 02:49:00,SystemResetWarning,0830.3,5.00,000.00,029.8,028.5,000.0,038.2,031.4,26.7,0000.0,0004.06,0012.37,0003.13
2023-06-11 02:50:00,SystemResetWarning,0830.3,5.00,000.00,029.8,028.6,000.0,038.3,031.4,26.4,0000.0,0004.09,0012.64,0003.14
2023-06-11 02:51:00,SystemResetWarning,0830.3,5.00,000.00,029.9,028.6,000.0,038.3,031.5,26.2,0000.0,0004.07,0012.38,0003.14
2023-06-11 02:52:00,SystemResetWarning,0830.3,5.00,000.00,029.9,028.6,000.0,038.3,031.5,26.4,0000.0,0004.06,0012.31,0003.15
2023-06-11 02:53:00,SystemResetWarning,0830.3,4.99,000.00,029.9,027.7,000.0,038.3,031.5,26.2,0000.0,0004.04,0012.21,0003.16
2023-06-11 02:54:00,SystemResetWarning,0830.3,5.00,000.00,029.9,025.5,000.0,038.3,031.4,26.0,0000.0,0004.03,0012.77,0003.16
2023-06-11 02:55:00,SystemResetWarning,0830.3,5.00,000.00,029.9,024.9,000.0,038.2,031.3,25.9,0000.0,0004.05,0013.55,0003.16
2023-06-11 02:56:00,SystemResetWarning,0830.3,5.00,000.00,029.7,025.1,000.0,038.2,030.9,25.7,0000.0,0004.08,0014.06,0003.17
2023-06-11 02:57:00,SystemResetWarning,0830.2,5.01,000.00,029.6,025.5,000.0,038.2,030.9,25.9,0000.0,0004.09,0013.98,0003.18
2023-06-11 02:58:00,SystemResetWarning,0830.3,5.00,000.00,029.6,025.9,000.0,038.2,030.9,26.0,0000.0,0004.11,0014.32,0003.17
2023-06-11 02:59:00,SystemResetWarning,0830.3,4.99,000.00,029.6,026.3,000.0,038.2,030.9,26.0,0000.0,0004.09,0013.95,0003.16
